Fort Leonard Wood, MO

7:53 AM CDT on May 26, 2018 (GMT -0500)
Waynesville Regional At Forney Field

Weather History for KTBN - August, 2013

Change the Weather History Date:

Saturday, August 17, 2013

  Actual Average Record
Temperature  
Mean Temperature 66 °F -  
Max Temperature 77 °F 84 °F 100 °F (2003)
Min Temperature 55 °F 67 °F 53 °F (2008)
Growing Degree Days 16 (Base 50)    
Moisture  
Dew Point 61 °F    
Average Humidity 83    
Maximum Humidity 100    
Minimum Humidity 63    
Precipitation  
Precipitation 0.00 in - - ()
Sea Level Pressure  
Sea Level Pressure 30.15 in    
Wind  
Wind Speed 4 mph (NE)    
Max Wind Speed 9 mph    
Max Gust Speed -    
Visibility 10 miles    
Events      
Averages and records for this station are not official NWS values.
T = Trace of Precipitation, MM = Missing Value Source: NWS Daily Summary

Daily Weather History Graph

Daily Weather History Graph

Search for Another Location

Airport or City:

Astronomy

Aug. 17, 2013 Rise Set
Actual Time 6:26 AM CDT 7:58 PM CDT
Civil Twilight 5:58 AM CDT 8:26 PM CDT
Nautical Twilight 5:24 AM CDT 8:59 PM CDT
Astronomical Twilight 4:49 AM CDT 9:34 PM CDT
Moon 5:12 PM CDT (8/17) 2:31 AM CDT (8/17)
Length of Visible Light 14h 27m
Length of Day
13h 32m
Waxing Gibbous, 84% of the Moon is Illuminated
Aug 17
Waxing Gibbous
Aug 20
Full
Aug 28
Last Quarter
Sep 5
New
Sep 12
First Quarter

Hourly Weather History & Observations

Time (CDT) Temp. Dew Point Humidity Pressure Visibility Wind Dir Wind Speed Gust Speed Precip Events Conditions
12:58 AM 59.7 °F 57.9 °F 94% 30.17 in 10.0 mi NE 2.3 mph - N/A   Partly Cloudy
1:58 AM 57.2 °F 57.2 °F 100% 30.16 in 10.0 mi NE 2.3 mph - N/A   Clear
2:58 AM 55.4 °F 55.4 °F 100% 30.16 in 10.0 mi Calm Calm - N/A   Partly Cloudy
3:58 AM 56.7 °F 56.7 °F 100% 30.16 in 10.0 mi NW 3.5 mph - N/A   Overcast
4:58 AM 55.2 °F 55.2 °F 100% 30.16 in 7.0 mi NNW 1.2 mph - N/A   Clear
5:58 AM 55.0 °F 55.0 °F 100% 30.16 in 9.0 mi Calm Calm - N/A   Partly Cloudy
6:58 AM 56.7 °F 56.7 °F 100% 30.17 in 10.0 mi NNE 3.5 mph - N/A   Clear
7:58 AM 59.2 °F 59.2 °F 100% 30.18 in 10.0 mi NE 3.5 mph - N/A   Clear
8:58 AM 63.9 °F 59.7 °F 86% 30.19 in 10.0 mi NE 4.6 mph - N/A   Clear
9:58 AM 68.2 °F 60.1 °F 75% 30.18 in 10.0 mi ENE 8.1 mph - N/A   Clear
10:58 AM 71.8 °F 61.0 °F 69% 30.19 in 10.0 mi ENE 9.2 mph - N/A   Clear
11:58 AM 73.9 °F 61.9 °F 66% 30.18 in 10.0 mi NNE 8.1 mph - N/A   Clear
12:58 PM 75.0 °F 62.4 °F 65% 30.16 in 10.0 mi Variable 5.8 mph - N/A   Partly Cloudy
1:58 PM 74.5 °F 62.2 °F 66% 30.15 in 10.0 mi Variable 5.8 mph - N/A   Mostly Cloudy
2:58 PM 73.8 °F 62.8 °F 68% 30.14 in 10.0 mi East 3.5 mph - N/A   Partly Cloudy
3:58 PM 76.6 °F 63.1 °F 63% 30.12 in 10.0 mi ENE 3.5 mph - N/A   Partly Cloudy
4:58 PM 75.4 °F 63.7 °F 67% 30.12 in 10.0 mi NE 5.8 mph - N/A   Partly Cloudy
5:58 PM 75.6 °F 63.5 °F 66% 30.11 in 10.0 mi NE 4.6 mph - N/A   Partly Cloudy
6:58 PM 73.9 °F 63.9 °F 71% 30.11 in 10.0 mi NNE 5.8 mph - N/A   Clear
7:58 PM 70.3 °F 64.0 °F 80% 30.12 in 10.0 mi NNE 4.6 mph - N/A   Clear
8:58 PM 68.9 °F 63.5 °F 83% 30.12 in 10.0 mi ENE 4.6 mph - N/A   Clear
9:58 PM 68.4 °F 62.8 °F 82% 30.13 in 10.0 mi ENE 4.6 mph - N/A   Clear
10:58 PM 67.1 °F 62.4 °F 85% 30.13 in 10.0 mi ENE 3.5 mph - N/A   Clear
11:58 PM 63.1 °F 62.2 °F 97% 30.13 in 10.0 mi NE 2.3 mph - N/A   Clear